Weather History for KY50 - November, 2013

Change the Weather History Date:

Wednesday, November 27, 2013

  Actual Average (KPCZ) Record (KPCZ)
Temperature  
Mean Temperature 17 °F -  
Max Temperature 26 °F 38 °F 61 °F (1984)
Min Temperature 8 °F 22 °F -2 °F (1951)
Degree Days  
Heating Degree Days 48    
Moisture  
Dew Point -    
Average Humidity    
Maximum Humidity    
Minimum Humidity    
Precipitation  
Precipitation 0.00 in - - ()
Sea Level Pressure  
Sea Level Pressure 30.23 in    
Wind  
Wind Speed 8 mph (NNW)    
Max Wind Speed 13 mph    
Max Gust Speed -    
Visibility 10 miles    
Events Snow    
Averages and records for this station are not official NWS values.
T = Trace of Precipitation, MM = Missing Value Source: NWS Daily Summary

Daily Weather History Graph

Daily Weather History Graph

Search for Another Location

Airport or City:

Trip Planner

Search our weather history database for the weather conditions in past years. The results will help you decide how hot, cold, wet, or windy it might be!

Date:

Astronomy

Nov. 27, 2013 Rise Set
Actual Time 7:07 AM CST 4:21 PM CST
Civil Twilight 6:35 AM CST 4:54 PM CST
Nautical Twilight 5:59 AM CST 5:29 PM CST
Astronomical Twilight 5:25 AM CST 6:04 PM CST
Moon 12:58 AM CST (11/27) 1:09 PM CST (11/27)
Length of Visible Light 10h 18m
Length of Day
9h 14m
Waning Crescent, 31% of the Moon is Illuminated
Nov 27
Waning Crescent
Dec 2
New
Dec 9
First Quarter
Dec 17
Full
Dec 25
Last Quarter

Hourly Weather History & Observations

Time (CST) Temp. Windchill Dew Point Humidity Pressure Visibility Wind Dir Wind Speed Gust Speed Precip Events Conditions
12:56 AM 10.0 °F -3.7 °F - N/A% 30.26 in 10.0 mi NW 10.4 mph - N/A   Partly Cloudy
1:56 AM 10.0 °F -4.5 °F - N/A% 30.26 in 10.0 mi NW 11.5 mph - N/A   Scattered Clouds
2:48 AM 10.4 °F -4.1 °F - N/A% 30.21 in 10.0 mi NW 11.5 mph - N/A   Mostly Cloudy
2:56 AM 10.0 °F -5.2 °F - N/A% 30.25 in 10.0 mi NW 12.7 mph - N/A   Scattered Clouds
3:56 AM 10.0 °F -4.5 °F - N/A% 30.25 in 10.0 mi NW 11.5 mph - N/A   Scattered Clouds
4:56 AM 10.0 °F -3.7 °F - N/A% 30.27 in 10.0 mi NNW 10.4 mph - N/A   Partly Cloudy
5:39 AM 8.6 °F -3.7 °F - N/A% 30.23 in 10.0 mi NW 8.1 mph - N/A   Mostly Cloudy
5:56 AM 9.1 °F -3.0 °F - N/A% 30.28 in 10.0 mi NW 8.1 mph - N/A   Scattered Clouds
6:56 AM 10.0 °F -4.5 °F - N/A% 30.28 in 10.0 mi NW 11.5 mph - N/A   Mostly Cloudy
7:15 AM 8.6 °F -5.5 °F - N/A% 30.24 in 10.0 mi NW 10.4 mph - N/A   Scattered Clouds
7:56 AM 11.1 °F -2.4 °F - N/A% 30.30 in 10.0 mi NW 10.4 mph - N/A   Scattered Clouds
8:56 AM 15.1 °F 2.5 °F - N/A% 30.30 in 10.0 mi NNW 10.4 mph - N/A   Partly Cloudy
9:09 AM 15.8 °F 4.2 °F - N/A% 30.25 in 10.0 mi NNW 9.2 mph - N/A   Mostly Cloudy
9:17 AM 17.6 °F 6.4 °F - N/A% 30.26 in 10.0 mi NNW 9.2 mph - N/A   Scattered Clouds
9:56 AM 19.0 °F 9.0 °F - N/A% 30.30 in 10.0 mi North 8.1 mph - N/A   Clear
10:56 AM 22.1 °F 10.6 °F - N/A% 30.28 in 10.0 mi North 11.5 mph - N/A   Clear
11:56 AM 24.1 °F 17.0 °F - N/A% 30.26 in 10.0 mi NNW 5.8 mph - N/A   Clear
12:17 PM 24.8 °F 15.3 °F - N/A% 30.20 in 10.0 mi NNW 9.2 mph - N/A   Scattered Clouds
12:26 PM 24.8 °F 16.9 °F - N/A% 30.20 in 10.0 mi NW 6.9 mph - N/A   Mostly Cloudy
12:43 PM 24.8 °F 17.9 °F - N/A% 30.20 in 10.0 mi North 5.8 mph - N/A   Scattered Clouds
12:56 PM 25.2 °F 18.3 °F - N/A% 30.24 in 10.0 mi NW 5.8 mph - N/A   Clear
1:56 PM 26.1 °F 15.6 °F - N/A% 30.22 in 10.0 mi West 11.5 mph - N/A   Clear
2:56 PM 25.2 °F 15.7 °F - N/A% 30.22 in 10.0 mi West 9.2 mph - N/A   Clear
3:56 PM 24.1 °F 16.0 °F - N/A% 30.22 in 10.0 mi NW 6.9 mph - N/A   Clear
4:56 PM 24.1 °F 19.7 °F - N/A% 30.23 in 10.0 mi NNW 3.5 mph - N/A   Overcast
5:56 PM 24.1 °F - - N/A% 30.23 in 10.0 mi Calm Calm - N/A   Partly Cloudy
6:47 PM 23.0 °F - - N/A% 30.18 in 10.0 mi Calm Calm - N/A   Mostly Cloudy
6:56 PM 23.0 °F - - N/A% 30.22 in 10.0 mi Calm Calm - N/A   Mostly Cloudy
7:17 PM 23.0 °F 18.4 °F - N/A% 30.17 in 10.0 mi NE 3.5 mph - N/A   Scattered Clouds
7:56 PM 23.0 °F - - N/A% 30.22 in 10.0 mi Calm Calm - N/A   Overcast
8:41 PM 23.0 °F - - N/A% 30.18 in 10.0 mi Calm Calm - 0.00 in   Overcast
8:56 PM 23.0 °F - - N/A% 30.18 in 10.0 mi Calm Calm - N/A   Overcast
9:56 PM 21.0 °F 14.6 °F - N/A% 30.24 in 7.0 mi ENE 4.6 mph - 0.00 in Snow Light Snow
10:42 PM 21.2 °F 14.9 °F - N/A% 30.19 in 10.0 mi East 4.6 mph - 0.00 in   Mostly Cloudy
10:56 PM 21.0 °F - - N/A% 30.23 in 10.0 mi Calm Calm - 0.00 in   Mostly Cloudy
11:07 PM 21.2 °F 16.4 °F - N/A% 30.19 in 10.0 mi ESE 3.5 mph - N/A   Mostly Cloudy
11:31 PM 21.2 °F 16.4 °F - N/A% 30.18 in 10.0 mi ESE 3.5 mph - N/A   Mostly Cloudy
11:56 PM 21.2 °F 13.6 °F - N/A% 30.18 in 10.0 mi East 5.8 mph - N/A   Mostly Cloudy